[[{"header":{"parameterUnit":"m.s-1","parameterCategory":1,"la1":30.2991,"la2":30.254,"lo1":-89.0895,"lo2":-89.0444,"dy":0.0017,"dx":0.0017,"nx":28,"ny":28,"refTime":"2024-09-01T03:00:00:Z","depth":0,"parameterNumber":2,"parameterNumberName":"U-component_of_WINDS"},"data":[0,0,0,0,0,0,0,0,0,0,0,0,0,0,0,0,0,0,0,0,0,0,0,0,0,0,0,0,0,0,0,0,0,0,0,0,0,0,0,0,0,0,0,0,0,0,0,0,0,0,0,0,0,0,0,0,0,0,-1.6218,-1.6218,0,-1.6246,-1.6246,-1.6246,-1.6271,-1.6271,-1.6272,-1.6272,-1.6299,-1.63,-1.63,0,0,0,0,0,0,0,0,0,0,0,0,0,-1.6186,-1.6187,-1.6218,-1.6218,-1.6219,-1.6246,-1.6246,-1.6246,-1.6271,-1.6271,-1.6272,-1.6272,-1.6299,-1.63,-1.63,0,0,0,0,0,0,0,0,0,0,0,0,0,-1.6206,-1.6187,-1.6218,-1.6234,-1.6236,-1.6245,-1.6246,-1.6246,-1.6271,-1.6271,-1.6272,-1.6272,-1.6299,-1.6299,-1.63,-1.6295,0,0,-1.6302,-1.6303,0,0,0,0,0,0,0,0,-1.6204,-1.6207,-1.6232,-1.6233,-1.6235,-1.6255,-1.6245,-1.6263,-1.6271,-1.6258,-1.6272,-1.6272,-1.6284,-1.6286,-1.629,-1.6297,-1.6298,-1.6302,-1.6303,-1.6303,-1.6303,0,0,0,0,0,0,0,-1.6203,-1.6206,-1.6229,-1.6232,-1.6234,-1.624,-1.6243,-1.6248,-1.6268,-1.6259,-1.6261,-1.6264,-1.6285,-1.629,-1.6291,-1.6298,-1.6302,-1.6303,-1.6303,-1.6304,-1.6303,-1.6303,0,0,0,0,0,0,-1.6199,-1.6204,-1.6228,-1.623,-1.6221,-1.624,-1.6244,-1.6248,-1.6268,-1.6271,-1.6263,-1.6265,-1.6288,-1.629,-1.6292,-1.6288,-1.6303,-1.6304,-1.6304,-1.6303,-1.6303,-1.6303,0,0,0,0,0,0,-1.6199,-1.6201,-1.6227,-1.6218,-1.6221,-1.624,-1.6245,-1.6249,-1.6253,-1.6271,-1.6275,-1.6264,-1.6289,-1.6291,-1.6295,-1.6289,-1.6304,-1.6305,-1.6304,-1.6303,-1.6303,-1.628,0,0,0,0,0,0,-1.6198,-1.6201,-1.6199,-1.6217,-1.6222,-1.6229,-1.6245,-1.6249,-1.6254,-1.6256,-1.6273,-1.6276,-1.6289,-1.6294,-1.6295,-1.6291,-1.6305,-1.6305,-1.6304,-1.6303,-1.6281,-1.6279,-1.6276,0,0,0,0,0,-1.6196,-1.6191,-1.6199,-1.6202,-1.622,-1.6229,-1.6231,-1.6246,-1.6254,-1.6252,-1.6264,-1.6276,-1.629,-1.6294,-1.6296,-1.6291,-1.6305,-1.6304,-1.6303,-1.6282,-1.6279,-1.6276,0,0,0,0,0,0,-1.6171,-1.6194,-1.6203,-1.6203,-1.6214,-1.6233,-1.6231,-1.6242,-1.6251,-1.6252,-1.6271,-1.6274,-1.6276,-1.6284,-1.6288,-1.6288,-1.6299,-1.6298,-1.6282,-1.628,-1.6277,-1.6275,-1.6306,0,0,0,0,0,-1.6166,-1.6171,-1.6191,-1.6189,-1.6194,-1.6212,-1.6216,-1.6227,-1.6238,-1.6243,-1.6255,-1.6266,-1.6273,-1.6277,-1.6284,-1.6283,-1.6287,-1.6281,-1.6279,-1.6276,-1.6276,-1.6276,-1.6274,-1.6299,-1.6299,-1.6299,0,0,-1.6155,-1.6168,-1.617,-1.6185,-1.6194,-1.6199,-1.6215,-1.622,-1.6223,-1.6244,-1.6248,-1.6257,-1.627,-1.6271,-1.6273,-1.6278,-1.627,-1.6275,-1.6273,-1.6274,-1.6275,-1.6272,-1.627,-1.6299,-1.6299,-1.6299,0,0,-1.6137,-1.6147,-1.6147,-1.6157,-1.6171,-1.6183,-1.6183,-1.6201,-1.6208,-1.6212,-1.6228,-1.6233,-1.6244,-1.6253,-1.6259,-1.6246,-1.6256,-1.6247,-1.6234,-1.6235,-1.6233,-1.6231,-1.6226,-1.6224,-1.6247,-1.6247,-1.6247,0,-1.612,-1.6129,-1.6146,-1.615,-1.6156,-1.6175,-1.6176,-1.6184,-1.62,-1.6203,-1.621,-1.6225,-1.6235,-1.6239,-1.6236,-1.624,-1.6241,-1.6245,-1.6232,-1.623,-1.6229,-1.6224,-1.6223,-1.6245,-1.6246,-1.6246,-1.6246,0,-1.6108,-1.6114,-1.6112,-1.6128,-1.6134,-1.6136,-1.6154,-1.6158,-1.6169,-1.618,-1.6185,-1.6198,-1.6208,-1.621,-1.622,-1.6216,-1.6219,-1.6228,-1.6239,-1.6225,-1.6221,-1.6219,-1.6244,-1.6244,-1.6244,-1.6245,0,0,-1.6074,-1.61,-1.6099,-1.6107,-1.6125,-1.6129,-1.6132,-1.6143,-1.6146,-1.6157,-1.616,-1.617,-1.6179,-1.6186,-1.6198,-1.6198,-1.6187,-1.6207,-1.6208,-1.6203,-1.6182,-1.6175,-1.6173,-1.6194,-1.6194,-1.6194,-1.6181,0,-1.6059,-1.6066,-1.6082,-1.6084,-1.6089,-1.6108,-1.6111,-1.6122,-1.6133,-1.6139,-1.6151,-1.6158,-1.617,-1.6174,-1.6175,-1.6188,-1.6183,-1.6189,-1.6197,-1.6197,-1.6193,-1.6171,-1.6162,-1.615,-1.618,-1.618,-1.6179,0,-1.6041,-1.6052,-1.6054,-1.6072,-1.6075,-1.6077,-1.6089,-1.6095,-1.6108,-1.6116,-1.6125,-1.6138,-1.6142,-1.6153,-1.616,-1.6163,-1.6168,-1.6175,-1.6175,-1.6176,-1.6187,-1.6171,-1.6146,-1.6144,-1.6177,-1.6178,-1.6178,0,-1.6016,-1.603,-1.6034,-1.604,-1.6061,-1.6062,-1.6071,-1.6085,-1.6091,-1.6101,-1.6105,-1.6116,-1.6121,-1.6129,-1.6145,-1.6151,-1.615,-1.6162,-1.6157,-1.6156,-1.6155,-1.6154,-1.613,-1.6158,-1.6158,-1.6158,-1.6158,0,-1.5997,-1.5997,-1.6023,-1.6025,-1.6026,-1.6045,-1.6046,-1.6057,-1.607,-1.6074,-1.6091,-1.6095,-1.6116,-1.6122,-1.6135,-1.6138,-1.6141,-1.6147,-1.615,-1.6145,-1.6145,-1.6148,-1.6149,-1.6158,-1.6158,-1.6158,-1.6158,0,-1.5968,-1.5985,-1.599,-1.6011,-1.6016,-1.6016,-1.6033,-1.6036,-1.6049,-1.6054,-1.6057,-1.6076,-1.6085,-1.6101,-1.6114,-1.6123,-1.6124,-1.6129,-1.6119,-1.6121,-1.6114,-1.6115,-1.6091,-1.6089,-1.6119,-1.6119,-1.6118,0,-1.5954,-1.5956,-1.5976,-1.5981,-1.5989,-1.5996,-1.6003,-1.6022,-1.6027,-1.6043,-1.6044,-1.6054,-1.6063,-1.6076,-1.6091,-1.6101,-1.6107,-1.6099,-1.6109,-1.6104,-1.6107,-1.6107,-1.6107,-1.6096,-1.6095,-1.6095,-1.6095,0,-1.5928,-1.5937,-1.5945,-1.5957,-1.5964,-1.5974,-1.5985,-1.5988,-1.6009,-1.6015,-1.6024,-1.6031,-1.6045,-1.6055,-1.6067,-1.6077,-1.6089,-1.6092,-1.6091,-1.6085,-1.6079,-1.6082,-1.6112,-1.6092,-1.6092,-1.6092,-1.6093,-1.6093,-1.5907,-1.5909,-1.5924,-1.5933,-1.5943,-1.5953,-1.5957,-1.5971,-1.5979,-1.5992,-1.6002,-1.6011,-1.6025,-1.6043,-1.6052,-1.6059,-1.6065,-1.6064,-1.6064,-1.6063,-1.6061,-1.6079,-1.6061,-1.6062,-1.6062,-1.6062,-1.6062,0,-1.5881,-1.5892,-1.59,-1.5915,-1.5923,-1.5935,-1.5948,-1.5953,-1.596,-1.5973,-1.5981,-1.5992,-1.6002,-1.6019,-1.603,-1.6032,-1.6038,-1.6034,-1.6034,-1.6036,-1.6055,-1.6054,-1.6029,-1.6029,-1.6029,-1.6029,-1.6029,-1.6029,-1.5869,-1.5873,-1.5884,-1.5893,-1.5905,-1.5913,-1.5919,-1.5929,-1.5939,-1.595,-1.5959,-1.597,-1.5984,-1.5997,-1.6006,-1.6011,-1.6014,-1.6008,-1.6015,-1.6032,-1.6035,-1.6038,-1.6037,-1.6009,-1.6009,-1.5995,-1.5995,-1.5995]},{"header":{"parameterUnit":"m.s-1","parameterCategory":1,"la1":30.2991,"la2":30.254,"lo1":-89.0895,"lo2":-89.0444,"dy":0.0017,"dx":0.0017,"nx":28,"ny":28,"refTime":"2024-09-01T03:00:00:Z","depth":0,"parameterNumber":3,"parameterNumberName":"V-component_of_WINDS"},"data":[0,0,0,0,0,0,0,0,0,0,0,0,0,0,0,0,0,0,0,0,0,0,0,0,0,0,0,0,0,0,0,0,0,0,0,0,0,0,0,0,0,0,0,0,0,0,0,0,0,0,0,0,0,0,0,0,0,0,-1.8234,-1.8234,0,-1.8219,-1.8218,-1.8218,-1.8171,-1.817,-1.8169,-1.8168,-1.8153,-1.8154,-1.8154,0,0,0,0,0,0,0,0,0,0,0,0,0,-1.8224,-1.8224,-1.8234,-1.8234,-1.8234,-1.8219,-1.8218,-1.8218,-1.8171,-1.817,-1.8169,-1.8168,-1.8153,-1.8154,-1.8155,0,0,0,0,0,0,0,0,0,0,0,0,0,-1.822,-1.8224,-1.8234,-1.8208,-1.8206,-1.8219,-1.8218,-1.8218,-1.8172,-1.817,-1.8168,-1.8167,-1.8153,-1.8154,-1.8155,-1.8191,0,0,-1.8157,-1.8158,0,0,0,0,0,0,0,0,-1.8221,-1.8221,-1.8212,-1.821,-1.8207,-1.8195,-1.8209,-1.8209,-1.8172,-1.8185,-1.8168,-1.8166,-1.8169,-1.8168,-1.8169,-1.8191,-1.819,-1.8157,-1.8158,-1.8158,-1.8158,0,0,0,0,0,0,0,-1.8221,-1.8221,-1.8228,-1.8212,-1.8209,-1.8198,-1.8196,-1.8209,-1.8186,-1.8183,-1.818,-1.8179,-1.8167,-1.8168,-1.8168,-1.819,-1.8157,-1.8158,-1.8159,-1.8159,-1.8242,-1.8243,0,0,0,0,0,0,-1.8225,-1.8222,-1.8228,-1.8227,-1.821,-1.8199,-1.8197,-1.8201,-1.8185,-1.8181,-1.818,-1.8177,-1.8167,-1.8167,-1.8167,-1.821,-1.8158,-1.8159,-1.816,-1.824,-1.8242,-1.8244,0,0,0,0,0,0,-1.8225,-1.8226,-1.8229,-1.8224,-1.8223,-1.8201,-1.8206,-1.8201,-1.8202,-1.8183,-1.8178,-1.8185,-1.8166,-1.8166,-1.8186,-1.8209,-1.8159,-1.816,-1.8238,-1.8241,-1.8243,-1.8296,0,0,0,0,0,0,-1.8224,-1.8226,-1.8239,-1.8224,-1.8224,-1.8248,-1.8207,-1.8202,-1.8204,-1.8199,-1.8187,-1.8183,-1.8165,-1.8185,-1.8187,-1.8209,-1.8161,-1.8236,-1.8239,-1.8242,-1.8292,-1.83,-1.8306,0,0,0,0,0,-1.8224,-1.8255,-1.824,-1.8241,-1.824,-1.8249,-1.8249,-1.8227,-1.8206,-1.8219,-1.8207,-1.8183,-1.8206,-1.8187,-1.8189,-1.8212,-1.8235,-1.8238,-1.8242,-1.8288,-1.8298,-1.8306,0,0,0,0,0,0,-1.8273,-1.8252,-1.8236,-1.8262,-1.8258,-1.8241,-1.8258,-1.8238,-1.8239,-1.8235,-1.8208,-1.8205,-1.8229,-1.8222,-1.8202,-1.8247,-1.8216,-1.8221,-1.8251,-1.826,-1.8267,-1.8269,-1.8162,0,0,0,0,0,-1.8287,-1.8296,-1.8277,-1.8302,-1.8301,-1.828,-1.8283,-1.8266,-1.8261,-1.8259,-1.8248,-1.8243,-1.8249,-1.8254,-1.8258,-1.829,-1.8287,-1.8307,-1.8314,-1.832,-1.8325,-1.8342,-1.8351,-1.8256,-1.8256,-1.8256,0,0,-1.8316,-1.8306,-1.8313,-1.8312,-1.8306,-1.8317,-1.8278,-1.8291,-1.8299,-1.826,-1.8279,-1.8271,-1.8264,-1.829,-1.8301,-1.8285,-1.835,-1.8325,-1.833,-1.8331,-1.8347,-1.8356,-1.8364,-1.8259,-1.8259,-1.8258,0,0,-1.8374,-1.8367,-1.8387,-1.8383,-1.8375,-1.8361,-1.8366,-1.8352,-1.8345,-1.8363,-1.8335,-1.8344,-1.8354,-1.8351,-1.8351,-1.8408,-1.8387,-1.841,-1.8449,-1.8466,-1.8474,-1.848,-1.8502,-1.851,-1.8415,-1.8415,-1.8415,0,-1.8411,-1.8425,-1.84,-1.8415,-1.8416,-1.8382,-1.8403,-1.8399,-1.8394,-1.8395,-1.8377,-1.8391,-1.8384,-1.8409,-1.8423,-1.8424,-1.8429,-1.8412,-1.8475,-1.8481,-1.8487,-1.8507,-1.8515,-1.8418,-1.8417,-1.8417,-1.8417,0,-1.8472,-1.8482,-1.85,-1.8495,-1.8498,-1.8516,-1.8494,-1.85,-1.8483,-1.8471,-1.849,-1.848,-1.8483,-1.8487,-1.8471,-1.8511,-1.8501,-1.8479,-1.8448,-1.8499,-1.8518,-1.8525,-1.8422,-1.8421,-1.842,-1.8419,0,0,-1.8561,-1.8543,-1.855,-1.8548,-1.8536,-1.8544,-1.8561,-1.8563,-1.8569,-1.8566,-1.858,-1.859,-1.8569,-1.8569,-1.8552,-1.8567,-1.8615,-1.8543,-1.8543,-1.8558,-1.866,-1.8677,-1.8687,-1.86,-1.8601,-1.8603,-1.8661,0,-1.8617,-1.8644,-1.8622,-1.8654,-1.8664,-1.8631,-1.8646,-1.8641,-1.863,-1.8637,-1.8625,-1.8633,-1.8605,-1.8605,-1.8618,-1.8606,-1.8635,-1.8601,-1.8614,-1.8615,-1.8618,-1.8696,-1.8715,-1.877,-1.8668,-1.8669,-1.867,0,-1.8686,-1.8687,-1.8719,-1.8707,-1.871,-1.8724,-1.8724,-1.8731,-1.8725,-1.8716,-1.8716,-1.8695,-1.8711,-1.8679,-1.8701,-1.8679,-1.8683,-1.8678,-1.8679,-1.8681,-1.8646,-1.8701,-1.8787,-1.8796,-1.8681,-1.868,-1.8679,0,-1.875,-1.8759,-1.8779,-1.8778,-1.8764,-1.8774,-1.8769,-1.8761,-1.8764,-1.8765,-1.8767,-1.8769,-1.8771,-1.8773,-1.8754,-1.8732,-1.8779,-1.8745,-1.8773,-1.8774,-1.8785,-1.8785,-1.8875,-1.8785,-1.8785,-1.8785,-1.8785,0,-1.8816,-1.8837,-1.8808,-1.8821,-1.8844,-1.8819,-1.8843,-1.8834,-1.8827,-1.8839,-1.881,-1.8821,-1.8794,-1.8803,-1.8787,-1.8809,-1.8809,-1.8803,-1.8799,-1.8807,-1.8808,-1.881,-1.8806,-1.8787,-1.8787,-1.8786,-1.8786,0,-1.8892,-1.8872,-1.8893,-1.8878,-1.8875,-1.8893,-1.888,-1.8891,-1.8878,-1.8893,-1.8895,-1.8875,-1.8883,-1.8864,-1.8869,-1.8859,-1.889,-1.8879,-1.8892,-1.889,-1.8919,-1.8917,-1.9014,-1.9026,-1.8928,-1.8929,-1.8929,0,-1.8936,-1.8951,-1.8938,-1.8943,-1.8939,-1.8948,-1.8951,-1.8927,-1.8931,-1.8926,-1.8938,-1.8944,-1.8948,-1.8963,-1.895,-1.8954,-1.8944,-1.8977,-1.8944,-1.8952,-1.8946,-1.8946,-1.8948,-1.8985,-1.8986,-1.8987,-1.8988,0,-1.9016,-1.9006,-1.9011,-1.9014,-1.9018,-1.9018,-1.9017,-1.9023,-1.8997,-1.9004,-1.9012,-1.9015,-1.9021,-1.9028,-1.9029,-1.9024,-1.9002,-1.8998,-1.9005,-1.9014,-1.9021,-1.9019,-1.8912,-1.8996,-1.8995,-1.8995,-1.8994,-1.8994,-1.9078,-1.9091,-1.9084,-1.9091,-1.9087,-1.9087,-1.9097,-1.9086,-1.9092,-1.9095,-1.908,-1.9092,-1.9086,-1.9086,-1.9083,-1.9092,-1.9077,-1.9087,-1.9089,-1.9092,-1.9098,-1.9018,-1.9092,-1.9092,-1.9091,-1.9091,-1.9091,0,-1.9159,-1.9152,-1.9159,-1.9158,-1.9164,-1.9142,-1.914,-1.9146,-1.9157,-1.9153,-1.9157,-1.9167,-1.9174,-1.9161,-1.9165,-1.9176,-1.9166,-1.9178,-1.9178,-1.9177,-1.911,-1.9105,-1.9186,-1.9186,-1.9186,-1.9186,-1.9186,-1.9186,-1.9201,-1.9222,-1.9212,-1.9231,-1.9224,-1.9236,-1.9236,-1.9236,-1.9233,-1.9246,-1.9251,-1.9242,-1.9235,-1.9239,-1.9244,-1.924,-1.9244,-1.9259,-1.9252,-1.9191,-1.9181,-1.9173,-1.9167,-1.926,-1.926,-1.9318,-1.9318,-1.9319]}]]